[[{"header":{"parameterUnit":"m.s-1","parameterCategory":1,"la1":30.2991,"la2":30.254,"lo1":-89.0895,"lo2":-89.0444,"dy":0.0017,"dx":0.0017,"nx":28,"ny":28,"refTime":"2025-11-20T09:00:00:Z","depth":0,"parameterNumber":2,"parameterNumberName":"U-component_of_WINDS"},"data":[0,0,0,0,0,0,0,0,0,0,0,0,0,0,0,0,0,0,0,0,0,0,0,0,0,0,0,0,0,0,0,0,0,0,0,0,0,0,0,0,0,0,0,0,0,0,0,0,0,0,0,0,0,0,0,0,0,0,-1.3276,-1.3276,0,-1.3254,-1.3253,-1.3253,-1.3241,-1.3241,-1.3241,-1.3241,-1.3219,-1.3218,-1.3218,0,0,0,0,0,0,0,0,0,0,0,0,0,-1.331,-1.331,-1.3277,-1.3276,-1.3276,-1.3254,-1.3253,-1.3253,-1.3241,-1.3241,-1.3241,-1.3241,-1.3219,-1.3218,-1.3218,0,0,0,0,0,0,0,0,0,0,0,0,0,-1.3293,-1.331,-1.3277,-1.3267,-1.3266,-1.3254,-1.3253,-1.3253,-1.3241,-1.3241,-1.3241,-1.3241,-1.3219,-1.3218,-1.3217,-1.3213,0,0,-1.3215,-1.3215,0,0,0,0,0,0,0,0,-1.3294,-1.3291,-1.3269,-1.3268,-1.3267,-1.325,-1.3257,-1.324,-1.3241,-1.325,-1.3241,-1.3241,-1.3229,-1.3228,-1.3223,-1.3212,-1.3211,-1.3215,-1.3214,-1.3214,-1.3214,0,0,0,0,0,0,0,-1.3295,-1.3292,-1.3268,-1.3268,-1.3267,-1.3264,-1.3262,-1.3254,-1.324,-1.325,-1.3249,-1.3246,-1.3229,-1.3224,-1.3223,-1.3211,-1.3215,-1.3214,-1.3214,-1.3213,-1.3195,-1.3195,0,0,0,0,0,0,-1.3297,-1.3293,-1.3268,-1.3267,-1.328,-1.3264,-1.3261,-1.3255,-1.324,-1.3238,-1.3246,-1.3246,-1.3226,-1.3224,-1.3222,-1.3216,-1.3214,-1.3213,-1.3213,-1.3195,-1.3195,-1.3195,0,0,0,0,0,0,-1.3298,-1.3295,-1.3269,-1.328,-1.3276,-1.3263,-1.3257,-1.3255,-1.3251,-1.3238,-1.3236,-1.3244,-1.3226,-1.3223,-1.3215,-1.3215,-1.3213,-1.3212,-1.3195,-1.3195,-1.3195,-1.3204,0,0,0,0,0,0,-1.3299,-1.3296,-1.3294,-1.328,-1.3276,-1.3263,-1.3257,-1.3255,-1.3249,-1.3248,-1.3235,-1.3233,-1.3225,-1.3217,-1.3215,-1.3214,-1.3211,-1.3195,-1.3195,-1.3195,-1.3204,-1.3204,-1.3205,0,0,0,0,0,-1.3301,-1.3297,-1.3294,-1.3291,-1.3273,-1.3263,-1.326,-1.3251,-1.3249,-1.3247,-1.3239,-1.3234,-1.3215,-1.3216,-1.3214,-1.3212,-1.3195,-1.3195,-1.3195,-1.3203,-1.3204,-1.3205,0,0,0,0,0,0,-1.3312,-1.3295,-1.3291,-1.3283,-1.3274,-1.3261,-1.3258,-1.3252,-1.3244,-1.3244,-1.3233,-1.323,-1.3223,-1.3217,-1.3218,-1.3208,-1.3205,-1.3204,-1.3212,-1.3212,-1.3213,-1.3214,-1.3211,0,0,0,0,0,-1.3313,-1.3306,-1.3292,-1.3287,-1.3282,-1.3271,-1.3266,-1.326,-1.325,-1.3247,-1.3238,-1.3229,-1.3222,-1.3217,-1.3209,-1.3203,-1.32,-1.3201,-1.3201,-1.3202,-1.3202,-1.3198,-1.3198,-1.3195,-1.3195,-1.3195,0,0,-1.3317,-1.3307,-1.3303,-1.3289,-1.3281,-1.3274,-1.3268,-1.3261,-1.3255,-1.3246,-1.3237,-1.3231,-1.3221,-1.3213,-1.321,-1.3208,-1.3202,-1.3202,-1.3203,-1.3202,-1.3198,-1.3198,-1.3198,-1.3195,-1.3195,-1.3195,0,0,-1.3319,-1.331,-1.3305,-1.3297,-1.3286,-1.3278,-1.3277,-1.3264,-1.3259,-1.325,-1.3243,-1.3237,-1.3224,-1.3217,-1.3211,-1.3211,-1.3206,-1.3209,-1.3212,-1.3208,-1.3208,-1.3208,-1.3208,-1.3208,-1.3208,-1.3208,-1.3209,0,-1.3324,-1.3313,-1.3303,-1.3296,-1.329,-1.328,-1.3275,-1.3268,-1.3255,-1.3251,-1.3249,-1.3233,-1.3225,-1.3216,-1.3216,-1.3212,-1.321,-1.321,-1.3209,-1.3209,-1.3209,-1.3208,-1.3208,-1.3209,-1.3209,-1.3209,-1.3209,0,-1.332,-1.3312,-1.3309,-1.3296,-1.329,-1.3283,-1.3273,-1.3268,-1.3262,-1.3255,-1.3247,-1.3237,-1.3227,-1.3225,-1.3219,-1.3215,-1.3214,-1.3211,-1.3208,-1.321,-1.3209,-1.3209,-1.321,-1.3209,-1.3209,-1.3209,0,0,-1.3328,-1.3309,-1.3308,-1.3302,-1.3289,-1.3283,-1.3276,-1.3266,-1.3262,-1.3253,-1.3248,-1.3237,-1.3234,-1.3228,-1.3222,-1.3218,-1.3218,-1.3215,-1.3215,-1.3216,-1.3213,-1.3215,-1.3215,-1.3215,-1.3215,-1.3215,-1.3214,0,-1.3328,-1.3315,-1.3306,-1.3297,-1.329,-1.3281,-1.3275,-1.3266,-1.326,-1.3253,-1.3245,-1.3238,-1.3234,-1.323,-1.3227,-1.3219,-1.3218,-1.3219,-1.321,-1.3209,-1.3212,-1.3215,-1.3217,-1.3217,-1.3213,-1.3213,-1.3213,0,-1.3326,-1.3317,-1.3307,-1.3294,-1.3291,-1.3286,-1.3276,-1.3269,-1.3259,-1.3255,-1.3248,-1.3242,-1.3235,-1.3232,-1.3223,-1.3224,-1.322,-1.3215,-1.3215,-1.3214,-1.3211,-1.3213,-1.3216,-1.3216,-1.3213,-1.3213,-1.3213,0,-1.3333,-1.3318,-1.331,-1.3305,-1.329,-1.3287,-1.328,-1.3271,-1.3265,-1.3257,-1.3253,-1.3244,-1.3239,-1.3233,-1.3224,-1.3223,-1.3215,-1.3212,-1.3211,-1.3211,-1.321,-1.321,-1.3212,-1.3208,-1.3208,-1.3208,-1.3208,0,-1.3333,-1.3327,-1.3313,-1.3308,-1.3301,-1.3291,-1.3285,-1.3278,-1.3269,-1.3263,-1.3255,-1.325,-1.3239,-1.3232,-1.3226,-1.3219,-1.3217,-1.3213,-1.3211,-1.3213,-1.3214,-1.321,-1.321,-1.3208,-1.3208,-1.3208,-1.3208,0,-1.3339,-1.3329,-1.332,-1.3306,-1.3303,-1.3298,-1.3287,-1.3282,-1.3275,-1.3267,-1.3265,-1.3254,-1.3245,-1.3236,-1.3225,-1.3221,-1.3214,-1.3212,-1.3217,-1.3216,-1.3215,-1.3216,-1.3215,-1.3214,-1.3211,-1.3211,-1.3211,0,-1.334,-1.3335,-1.3321,-1.3316,-1.331,-1.3302,-1.3296,-1.3286,-1.3281,-1.3269,-1.3266,-1.3257,-1.3249,-1.3236,-1.3227,-1.3219,-1.3216,-1.3217,-1.3215,-1.3217,-1.3216,-1.3216,-1.3215,-1.3217,-1.3217,-1.3217,-1.3217,0,-1.3342,-1.3338,-1.3329,-1.3319,-1.3312,-1.3304,-1.3296,-1.3292,-1.3281,-1.3275,-1.3266,-1.326,-1.3249,-1.324,-1.323,-1.3224,-1.3219,-1.3218,-1.3217,-1.3219,-1.3222,-1.322,-1.3218,-1.3218,-1.3218,-1.3218,-1.3218,-1.3218,-1.3345,-1.3341,-1.333,-1.3321,-1.3313,-1.3306,-1.33,-1.3292,-1.3284,-1.3274,-1.3269,-1.326,-1.325,-1.3237,-1.3231,-1.3224,-1.3223,-1.3222,-1.3221,-1.3221,-1.3222,-1.3224,-1.3223,-1.3223,-1.3223,-1.3223,-1.3223,0,-1.3347,-1.334,-1.3331,-1.3319,-1.3313,-1.3308,-1.3298,-1.3293,-1.3285,-1.3276,-1.3269,-1.3259,-1.325,-1.3241,-1.3232,-1.3228,-1.3226,-1.3226,-1.3226,-1.3225,-1.3224,-1.3225,-1.3229,-1.3229,-1.3229,-1.3229,-1.3229,-1.3229,-1.3347,-1.3339,-1.3333,-1.3321,-1.3313,-1.3304,-1.3299,-1.3292,-1.3285,-1.3274,-1.3267,-1.326,-1.3252,-1.3242,-1.3234,-1.3232,-1.3229,-1.323,-1.3227,-1.3226,-1.3225,-1.3225,-1.3226,-1.3229,-1.3229,-1.3228,-1.3228,-1.3228]},{"header":{"parameterUnit":"m.s-1","parameterCategory":1,"la1":30.2991,"la2":30.254,"lo1":-89.0895,"lo2":-89.0444,"dy":0.0017,"dx":0.0017,"nx":28,"ny":28,"refTime":"2025-11-20T09:00:00:Z","depth":0,"parameterNumber":3,"parameterNumberName":"V-component_of_WINDS"},"data":[0,0,0,0,0,0,0,0,0,0,0,0,0,0,0,0,0,0,0,0,0,0,0,0,0,0,0,0,0,0,0,0,0,0,0,0,0,0,0,0,0,0,0,0,0,0,0,0,0,0,0,0,0,0,0,0,0,0,2.5911,2.5911,0,2.5971,2.5972,2.5973,2.6022,2.6022,2.6023,2.6023,2.6086,2.6087,2.6089,0,0,0,0,0,0,0,0,0,0,0,0,0,2.5839,2.584,2.5911,2.5911,2.5912,2.5971,2.5972,2.5973,2.6022,2.6022,2.6023,2.6023,2.6086,2.6087,2.6089,0,0,0,0,0,0,0,0,0,0,0,0,0,2.5882,2.584,2.5911,2.5944,2.5947,2.5971,2.5972,2.5973,2.6021,2.6022,2.6023,2.6024,2.6085,2.6087,2.6089,2.6085,0,0,2.6094,2.6095,0,0,0,0,0,0,0,0,2.5879,2.5884,2.5938,2.5941,2.5945,2.599,2.597,2.6011,2.6021,2.5993,2.6023,2.6024,2.6053,2.6058,2.6068,2.6088,2.6091,2.6095,2.6096,2.6096,2.6097,0,0,0,0,0,0,0,2.5876,2.5882,2.5935,2.5939,2.5943,2.5956,2.5963,2.5978,2.6018,2.5996,2.5999,2.6006,2.6056,2.6066,2.607,2.6092,2.6094,2.6096,2.6097,2.6098,2.6113,2.6112,0,0,0,0,0,0,2.5868,2.5879,2.5933,2.5936,2.5913,2.5956,2.5964,2.5975,2.6018,2.6026,2.6005,2.6008,2.6062,2.6067,2.6072,2.6072,2.6096,2.6098,2.6099,2.6114,2.6113,2.6112,0,0,0,0,0,0,2.5866,2.5872,2.593,2.5909,2.5917,2.5957,2.5968,2.5975,2.5986,2.6026,2.6033,2.6008,2.6063,2.6069,2.6082,2.6075,2.6099,2.6101,2.6114,2.6113,2.6112,2.607,0,0,0,0,0,0,2.5864,2.5871,2.587,2.5908,2.5918,2.5938,2.5968,2.5976,2.5989,2.5993,2.603,2.6037,2.6064,2.6079,2.6083,2.6077,2.6102,2.6115,2.6114,2.6113,2.6072,2.6068,2.6064,0,0,0,0,0,2.5861,2.5856,2.587,2.5876,2.5917,2.5938,2.5944,2.5975,2.5988,2.5987,2.6013,2.6036,2.6074,2.6079,2.6085,2.608,2.6116,2.6114,2.6113,2.6074,2.6069,2.6064,0,0,0,0,0,0,2.5816,2.5861,2.5877,2.5884,2.5907,2.5946,2.5946,2.5967,2.5987,2.599,2.6028,2.6036,2.6045,2.6063,2.6068,2.6079,2.6098,2.6098,2.6067,2.6062,2.6058,2.6054,2.6103,0,0,0,0,0,2.5806,2.5819,2.5858,2.586,2.5871,2.5906,2.5916,2.5938,2.5964,2.5974,2.6,2.6024,2.6042,2.6052,2.6071,2.6075,2.6084,2.6074,2.6069,2.6066,2.6065,2.607,2.6067,2.6107,2.6107,2.6107,0,0,2.5787,2.5814,2.582,2.5852,2.5872,2.5885,2.5914,2.5926,2.5937,2.5976,2.5989,2.6009,2.6038,2.6047,2.6052,2.6063,2.6056,2.6064,2.606,2.6062,2.6068,2.6065,2.6061,2.6106,2.6106,2.6106,0,0,2.576,2.578,2.5785,2.5805,2.5835,2.5859,2.5859,2.5896,2.5911,2.5925,2.5954,2.5967,2.5996,2.6016,2.603,2.6009,2.6032,2.6014,2.5993,2.5997,2.5994,2.5991,2.5986,2.5983,2.6013,2.6013,2.6013,0,2.5733,2.5753,2.5785,2.5796,2.581,2.5845,2.585,2.5868,2.5902,2.5911,2.5922,2.596,2.5982,2.5996,2.5991,2.6001,2.6004,2.6011,2.5992,2.5989,2.5987,2.5983,2.598,2.6011,2.6011,2.6012,2.6012,0,2.572,2.5733,2.5733,2.5766,2.5779,2.5787,2.5821,2.5831,2.5851,2.5873,2.5888,2.5915,2.594,2.5944,2.5964,2.5962,2.5968,2.5984,2.6005,2.5981,2.5977,2.5975,2.6008,2.6009,2.6009,2.601,0,0,2.5667,2.5716,2.5716,2.5732,2.5767,2.5778,2.5788,2.5812,2.5821,2.5843,2.5853,2.5876,2.5892,2.5908,2.593,2.5934,2.5918,2.595,2.5952,2.5945,2.5918,2.5907,2.5904,2.5932,2.5932,2.5931,2.5917,0,2.5647,2.5666,2.5695,2.5705,2.5719,2.5752,2.576,2.5783,2.5804,2.5819,2.5843,2.586,2.5878,2.5888,2.5893,2.5919,2.5913,2.592,2.5943,2.5943,2.5937,2.5902,2.589,2.5874,2.5915,2.5915,2.5915,0,2.5626,2.5647,2.5658,2.5693,2.57,2.5707,2.5732,2.5745,2.5772,2.5787,2.5804,2.5829,2.5841,2.5858,2.5877,2.588,2.5891,2.5905,2.5905,2.591,2.5929,2.5908,2.587,2.5868,2.5912,2.5912,2.5913,0,2.5589,2.5619,2.5631,2.5642,2.5683,2.5687,2.5704,2.5732,2.5745,2.5766,2.5775,2.5797,2.581,2.5827,2.5857,2.5866,2.5873,2.5892,2.5887,2.5886,2.5889,2.5888,2.5854,2.5892,2.5892,2.5892,2.5892,0,2.5565,2.5571,2.5614,2.5622,2.563,2.5662,2.5669,2.569,2.5714,2.5726,2.5755,2.5766,2.5803,2.5819,2.5842,2.5855,2.5859,2.5873,2.588,2.5872,2.587,2.5881,2.5883,2.5892,2.5892,2.5892,2.5892,0,2.5526,2.5555,2.5569,2.5606,2.5616,2.562,2.5652,2.566,2.5683,2.5698,2.5703,2.5738,2.5758,2.5789,2.5817,2.5833,2.5842,2.5851,2.5833,2.5837,2.5831,2.5832,2.5804,2.5803,2.584,2.5839,2.5839,0,2.5509,2.5515,2.5552,2.5562,2.5578,2.5594,2.5607,2.5639,2.5652,2.5683,2.5687,2.5709,2.5728,2.5758,2.5787,2.5809,2.582,2.5809,2.5824,2.5816,2.5823,2.5823,2.5824,2.5806,2.5806,2.5805,2.5805,0,2.5478,2.5492,2.551,2.5532,2.5547,2.5567,2.5587,2.5594,2.5631,2.5643,2.5664,2.5678,2.5708,2.5729,2.5755,2.5774,2.5796,2.5799,2.58,2.5793,2.5783,2.579,2.5826,2.58,2.5801,2.5801,2.5801,2.5802,2.5451,2.5458,2.5486,2.5504,2.5523,2.5542,2.5552,2.5575,2.5593,2.5619,2.5637,2.5656,2.5683,2.572,2.5737,2.5753,2.5763,2.5763,2.5764,2.5764,2.5761,2.5778,2.5758,2.5758,2.5758,2.5758,2.5759,0,2.5423,2.5442,2.5459,2.5487,2.5502,2.552,2.5544,2.5556,2.5573,2.5595,2.5614,2.5637,2.5658,2.5688,2.5712,2.5719,2.573,2.5724,2.5725,2.5729,2.5751,2.5749,2.5715,2.5715,2.5715,2.5715,2.5715,2.5715,2.541,2.5423,2.544,2.5463,2.5482,2.5501,2.5514,2.5532,2.555,2.5575,2.5593,2.5612,2.5638,2.5663,2.5684,2.5692,2.57,2.5692,2.5703,2.5723,2.5727,2.5731,2.573,2.5693,2.5693,2.5681,2.5681,2.5681]}]]